Location: Croissy-Beaubourg
(48.8283°N, 2.6696°E)
Time: 22:01:27
(UTC+00:00)

Cosmos 2082 - Pass Details

Date: 21 August 2022
Orbit: 832 x 856 km, 71.0° (Epoch: 28 September)

Event Time Altitude Azimuth Distance (km) Brightness Sun altitude
Rises 19:18:14 0° 254° (WSW) 3,376 7.7 -4.6°
Reaches altitude 10° 19:21:16 10° 270° (W) 2,447 7.4 -5.1°
Maximum altitude 19:25:29 21° 319° (NW) 1,784 6.5 -5.7°
Drops below altitude 10° 19:29:46 10° 8° (N) 2,465 6.4 -6.3°
Sets 19:32:50 0° 24° (NNE) 3,408 6.9 -6.8°
